Year,Month,Day,Hour,Minute,Value (Times are PST for temperature in C)
2016,06,12,00,00,13.30
2016,06,12,00,01,13.30
2016,06,12,00,02,13.30
2016,06,12,00,03,13.30
2016,06,12,00,04,13.30
2016,06,12,00,05,13.30
2016,06,12,00,06,13.30
2016,06,12,00,07,13.40
2016,06,12,00,08,13.40
2016,06,12,00,09,13.30
2016,06,12,00,10,13.30
2016,06,12,00,11,13.20
2016,06,12,00,12,13.10
2016,06,12,00,13,13.10
2016,06,12,00,14,13.10
2016,06,12,00,15,13.00
2016,06,12,00,16,13.00
2016,06,12,00,17,13.00
2016,06,12,00,18,12.90
2016,06,12,00,19,12.90
2016,06,12,00,20,12.90
2016,06,12,00,21,12.90
2016,06,12,00,22,12.90
2016,06,12,00,23,13.00
2016,06,12,00,24,13.00
2016,06,12,00,25,13.00
2016,06,12,00,26,13.00
2016,06,12,00,27,13.00
2016,06,12,00,28,13.10
2016,06,12,00,29,13.10
2016,06,12,00,30,13.10
2016,06,12,00,31,13.10
2016,06,12,00,32,13.10
2016,06,12,00,33,13.10
2016,06,12,00,34,13.10
2016,06,12,00,35,13.10
2016,06,12,00,36,13.10
2016,06,12,00,37,13.10
2016,06,12,00,38,13.20
2016,06,12,00,39,13.20
2016,06,12,00,40,13.20
2016,06,12,00,41,13.20
2016,06,12,00,42,13.20
2016,06,12,00,43,13.20
2016,06,12,00,44,13.20
2016,06,12,00,45,13.20
2016,06,12,00,46,13.20
2016,06,12,00,47,13.20
2016,06,12,00,48,13.20
2016,06,12,00,49,13.20
2016,06,12,00,50,13.20
2016,06,12,00,51,13.20
2016,06,12,00,52,13.20
2016,06,12,00,53,13.20
2016,06,12,00,54,13.20
2016,06,12,00,55,13.20
2016,06,12,00,56,13.20
2016,06,12,00,57,13.20
2016,06,12,00,58,13.20
2016,06,12,00,59,13.20
2016,06,12,01,00,13.20
2016,06,12,01,01,13.20
2016,06,12,01,02,13.20
2016,06,12,01,03,13.20
2016,06,12,01,04,13.20
2016,06,12,01,05,13.10
2016,06,12,01,06,13.10
2016,06,12,01,07,13.10
2016,06,12,01,08,13.10
2016,06,12,01,09,13.10
2016,06,12,01,10,13.10
2016,06,12,01,11,13.10
2016,06,12,01,12,13.00
2016,06,12,01,13,13.00
2016,06,12,01,14,13.00
2016,06,12,01,15,13.00
2016,06,12,01,16,13.00
2016,06,12,01,17,12.90
2016,06,12,01,18,12.90
2016,06,12,01,19,12.90
2016,06,12,01,20,12.90
2016,06,12,01,21,12.90
2016,06,12,01,22,12.90
2016,06,12,01,23,12.80
2016,06,12,01,24,12.80
2016,06,12,01,25,12.80
2016,06,12,01,26,12.80
2016,06,12,01,27,12.80
2016,06,12,01,28,12.80
2016,06,12,01,29,12.80
2016,06,12,01,30,12.80
2016,06,12,01,31,12.80
2016,06,12,01,32,12.80
2016,06,12,01,33,12.80
2016,06,12,01,34,12.80
2016,06,12,01,35,12.80
2016,06,12,01,36,12.80
2016,06,12,01,37,12.70
2016,06,12,01,38,12.70
2016,06,12,01,39,12.70
2016,06,12,01,40,12.70
2016,06,12,01,41,12.70
2016,06,12,01,42,12.70
2016,06,12,01,43,12.70
2016,06,12,01,44,12.70
2016,06,12,01,45,12.70
2016,06,12,01,46,12.70
2016,06,12,01,47,12.80
2016,06,12,01,48,12.80
2016,06,12,01,49,12.80
2016,06,12,01,50,12.80
2016,06,12,01,51,12.80
2016,06,12,01,52,12.80
2016,06,12,01,53,12.80
2016,06,12,01,54,12.80
2016,06,12,01,55,12.80
2016,06,12,01,56,12.80
2016,06,12,01,57,12.80
2016,06,12,01,58,12.80
2016,06,12,01,59,12.80
2016,06,12,02,00,12.90
2016,06,12,02,01,12.90
2016,06,12,02,02,12.90
2016,06,12,02,03,12.90
2016,06,12,02,04,12.90
2016,06,12,02,05,12.90
2016,06,12,02,06,12.90
2016,06,12,02,07,12.80
2016,06,12,02,08,12.70
2016,06,12,02,09,12.60
2016,06,12,02,10,12.60
2016,06,12,02,11,12.50
2016,06,12,02,12,12.40
2016,06,12,02,13,12.40
2016,06,12,02,14,12.30
2016,06,12,02,15,12.30
2016,06,12,02,16,12.30
2016,06,12,02,17,12.30
2016,06,12,02,18,12.30
2016,06,12,02,19,12.30
2016,06,12,02,20,12.20
2016,06,12,02,21,12.20
2016,06,12,02,22,12.20
2016,06,12,02,23,12.30
2016,06,12,02,24,12.30
2016,06,12,02,25,12.30
2016,06,12,02,26,12.30
2016,06,12,02,27,12.30
2016,06,12,02,28,12.30
2016,06,12,02,29,12.30
2016,06,12,02,30,12.30
2016,06,12,02,31,12.40
2016,06,12,02,32,12.30
2016,06,12,02,33,12.30
2016,06,12,02,34,12.30
2016,06,12,02,35,12.30
2016,06,12,02,36,12.30
2016,06,12,02,37,12.30
2016,06,12,02,38,12.30
2016,06,12,02,39,12.30
2016,06,12,02,40,12.30
2016,06,12,02,41,12.30
2016,06,12,02,42,12.30
2016,06,12,02,43,12.30
2016,06,12,02,44,12.20
2016,06,12,02,45,12.20
2016,06,12,02,46,12.10
2016,06,12,02,47,12.10
2016,06,12,02,48,12.00
2016,06,12,02,49,12.00
2016,06,12,02,50,11.90
2016,06,12,02,51,11.90
2016,06,12,02,52,11.90
2016,06,12,02,53,11.90
2016,06,12,02,54,11.90
2016,06,12,02,55,11.90
2016,06,12,02,56,11.90
2016,06,12,02,57,11.90
2016,06,12,02,58,11.90
2016,06,12,02,59,11.90
2016,06,12,03,00,11.90
2016,06,12,03,01,12.00
2016,06,12,03,02,12.00
2016,06,12,03,03,12.00
2016,06,12,03,04,12.00
2016,06,12,03,05,12.00
2016,06,12,03,06,12.00
2016,06,12,03,07,12.00
2016,06,12,03,08,11.90
2016,06,12,03,09,11.90
2016,06,12,03,10,11.90
2016,06,12,03,11,11.90
2016,06,12,03,12,11.90
2016,06,12,03,13,11.90
2016,06,12,03,14,11.90
2016,06,12,03,15,11.90
2016,06,12,03,16,11.90
2016,06,12,03,17,11.90
2016,06,12,03,18,11.90
2016,06,12,03,19,12.00
2016,06,12,03,20,12.00
2016,06,12,03,21,12.00
2016,06,12,03,22,12.10
2016,06,12,03,23,12.10
2016,06,12,03,24,12.10
2016,06,12,03,25,12.10
2016,06,12,03,26,12.10
2016,06,12,03,27,12.10
2016,06,12,03,28,12.10
2016,06,12,03,29,12.10
2016,06,12,03,30,12.10
2016,06,12,03,31,12.10
2016,06,12,03,32,12.00
2016,06,12,03,33,12.00
2016,06,12,03,34,12.00
2016,06,12,03,35,12.00
2016,06,12,03,36,11.90
2016,06,12,03,37,11.90
2016,06,12,03,38,11.90
2016,06,12,03,39,11.90
2016,06,12,03,40,11.90
2016,06,12,03,41,11.90
2016,06,12,03,42,11.90
2016,06,12,03,43,11.90
2016,06,12,03,44,11.90
2016,06,12,03,45,11.90
2016,06,12,03,46,11.90
2016,06,12,03,47,11.90
2016,06,12,03,48,11.90
2016,06,12,03,49,11.90
2016,06,12,03,50,11.90
2016,06,12,03,51,11.90
2016,06,12,03,52,11.80
2016,06,12,03,53,11.80
2016,06,12,03,54,11.80
2016,06,12,03,55,11.80
2016,06,12,03,56,11.80
2016,06,12,03,57,11.80
2016,06,12,03,58,11.80
2016,06,12,03,59,11.80
2016,06,12,04,00,11.80
2016,06,12,04,01,11.80
2016,06,12,04,02,11.80
2016,06,12,04,03,11.80
2016,06,12,04,04,11.80
2016,06,12,04,05,11.90
2016,06,12,04,06,11.90
2016,06,12,04,07,11.90
2016,06,12,04,08,11.90
2016,06,12,04,09,11.90
2016,06,12,04,10,12.00
2016,06,12,04,11,12.00
2016,06,12,04,12,12.00
2016,06,12,04,13,12.00
2016,06,12,04,14,12.00
2016,06,12,04,15,12.10
2016,06,12,04,16,12.10
2016,06,12,04,17,12.10
2016,06,12,04,18,12.10
2016,06,12,04,19,12.10
2016,06,12,04,20,12.10
2016,06,12,04,21,12.10
2016,06,12,04,22,12.10
2016,06,12,04,23,12.10
2016,06,12,04,24,12.00
2016,06,12,04,25,12.00
2016,06,12,04,26,12.00
2016,06,12,04,27,12.00
2016,06,12,04,28,12.00
2016,06,12,04,29,12.00
2016,06,12,04,30,12.00
2016,06,12,04,31,12.00
2016,06,12,04,32,11.90
2016,06,12,04,33,11.90
2016,06,12,04,34,11.90
2016,06,12,04,35,11.90
2016,06,12,04,36,11.90
2016,06,12,04,37,11.90
2016,06,12,04,38,11.90
2016,06,12,04,39,11.90
2016,06,12,04,40,12.00
2016,06,12,04,41,12.00
2016,06,12,04,42,12.00
2016,06,12,04,43,12.00
2016,06,12,04,44,12.00
2016,06,12,04,45,12.00
2016,06,12,04,46,12.00
2016,06,12,04,47,12.10
2016,06,12,04,48,12.10
2016,06,12,04,49,12.10
2016,06,12,04,50,12.10
2016,06,12,04,51,12.10
2016,06,12,04,52,12.10
2016,06,12,04,53,12.10
2016,06,12,04,54,12.10
2016,06,12,04,55,12.10
2016,06,12,04,56,12.10
2016,06,12,04,57,12.10
2016,06,12,04,58,12.10
2016,06,12,04,59,12.10
2016,06,12,05,00,12.10
2016,06,12,05,01,12.00
2016,06,12,05,02,12.00
2016,06,12,05,03,12.00
2016,06,12,05,04,11.90
2016,06,12,05,05,11.90
2016,06,12,05,06,11.90
2016,06,12,05,07,11.90
2016,06,12,05,08,11.80
2016,06,12,05,09,11.80
2016,06,12,05,10,11.80
2016,06,12,05,11,11.80
2016,06,12,05,12,11.80
2016,06,12,05,13,11.80
2016,06,12,05,14,11.80
2016,06,12,05,15,11.80
2016,06,12,05,16,11.80
2016,06,12,05,17,11.80
2016,06,12,05,18,11.80
2016,06,12,05,19,11.80
2016,06,12,05,20,11.80
2016,06,12,05,21,11.70
2016,06,12,05,22,11.70
2016,06,12,05,23,11.70
2016,06,12,05,24,11.60
2016,06,12,05,25,11.60
2016,06,12,05,26,11.60
2016,06,12,05,27,11.50
2016,06,12,05,28,11.50
2016,06,12,05,29,11.40
2016,06,12,05,30,11.40
2016,06,12,05,31,11.30
2016,06,12,05,32,11.30
2016,06,12,05,33,11.20
2016,06,12,05,34,11.10
2016,06,12,05,35,11.10
2016,06,12,05,36,11.10
2016,06,12,05,37,11.10
2016,06,12,05,38,11.10
2016,06,12,05,39,11.10
2016,06,12,05,40,11.10
2016,06,12,05,41,11.10
2016,06,12,05,42,11.10
2016,06,12,05,43,11.10
2016,06,12,05,44,11.10
2016,06,12,05,45,11.10
2016,06,12,05,46,11.10
2016,06,12,05,47,11.10
2016,06,12,05,48,11.00
2016,06,12,05,49,10.90
2016,06,12,05,50,10.90
2016,06,12,05,51,10.80
2016,06,12,05,52,10.70
2016,06,12,05,53,10.70
2016,06,12,05,54,10.70
2016,06,12,05,55,10.60
2016,06,12,05,56,10.60
2016,06,12,05,57,10.60
2016,06,12,05,58,10.50
2016,06,12,05,59,10.50
2016,06,12,06,00,10.50
2016,06,12,06,01,10.50
2016,06,12,06,02,10.50
2016,06,12,06,03,10.50
2016,06,12,06,04,10.50
2016,06,12,06,05,10.50
2016,06,12,06,06,10.50
2016,06,12,06,07,10.60
2016,06,12,06,08,10.60
2016,06,12,06,09,10.60
2016,06,12,06,10,10.60
2016,06,12,06,11,10.60
2016,06,12,06,12,10.70
2016,06,12,06,13,10.70
2016,06,12,06,14,10.70
2016,06,12,06,15,10.80
2016,06,12,06,16,10.80
2016,06,12,06,17,10.80
2016,06,12,06,18,10.80
2016,06,12,06,19,10.90
2016,06,12,06,20,10.90
2016,06,12,06,21,10.90
2016,06,12,06,22,10.90
2016,06,12,06,23,10.90
2016,06,12,06,24,10.90
2016,06,12,06,25,11.00
2016,06,12,06,26,11.00
2016,06,12,06,27,11.00
2016,06,12,06,28,11.00
2016,06,12,06,29,11.00
2016,06,12,06,30,11.00
2016,06,12,06,31,11.00
2016,06,12,06,32,11.10
2016,06,12,06,33,11.10
2016,06,12,06,34,11.10
2016,06,12,06,35,11.10
2016,06,12,06,36,11.20
2016,06,12,06,37,11.20
2016,06,12,06,38,11.20
2016,06,12,06,39,11.30
2016,06,12,06,40,11.30
2016,06,12,06,41,11.30
2016,06,12,06,42,11.30
2016,06,12,06,43,11.40
2016,06,12,06,44,11.40
2016,06,12,06,45,11.50
2016,06,12,06,46,11.50
2016,06,12,06,47,11.60
2016,06,12,06,48,11.60
2016,06,12,06,49,11.60
2016,06,12,06,50,11.70
2016,06,12,06,51,11.70
2016,06,12,06,52,11.70
2016,06,12,06,53,11.70
2016,06,12,06,54,11.70
2016,06,12,06,55,11.80
2016,06,12,06,56,11.80
2016,06,12,06,57,11.80
2016,06,12,06,58,11.80
2016,06,12,06,59,11.80
2016,06,12,07,00,11.80
2016,06,12,07,01,11.80
2016,06,12,07,02,11.90
2016,06,12,07,03,11.90
2016,06,12,07,04,11.90
2016,06,12,07,05,11.90
2016,06,12,07,06,11.90
2016,06,12,07,07,12.00
2016,06,12,07,08,12.00
2016,06,12,07,09,12.10
2016,06,12,07,10,12.10
2016,06,12,07,11,12.10
2016,06,12,07,12,12.20
2016,06,12,07,13,12.20
2016,06,12,07,14,12.20
2016,06,12,07,15,12.30
2016,06,12,07,16,12.30
2016,06,12,07,17,12.30
2016,06,12,07,18,12.30
2016,06,12,07,19,12.40
2016,06,12,07,20,12.40
2016,06,12,07,21,12.40
2016,06,12,07,22,12.40
2016,06,12,07,23,12.40
2016,06,12,07,24,12.40
2016,06,12,07,25,12.40
2016,06,12,07,26,12.40
2016,06,12,07,27,12.40
2016,06,12,07,28,12.40
2016,06,12,07,29,12.50
2016,06,12,07,30,12.50
2016,06,12,07,31,12.50
2016,06,12,07,32,12.50
2016,06,12,07,33,12.50
2016,06,12,07,34,12.60
2016,06,12,07,35,12.60
2016,06,12,07,36,12.60
2016,06,12,07,37,12.60
2016,06,12,07,38,12.60
2016,06,12,07,39,12.60
2016,06,12,07,40,12.60
2016,06,12,07,41,12.60
2016,06,12,07,42,12.60
2016,06,12,07,43,12.60
2016,06,12,07,44,12.60
2016,06,12,07,45,12.60
2016,06,12,07,46,12.70
2016,06,12,07,47,12.70
2016,06,12,07,48,12.70
2016,06,12,07,49,12.70
2016,06,12,07,50,12.70
2016,06,12,07,51,12.70
2016,06,12,07,52,12.70
2016,06,12,07,53,12.70
2016,06,12,07,54,12.70
2016,06,12,07,55,12.70
2016,06,12,07,56,12.80
2016,06,12,07,57,12.80
2016,06,12,07,58,12.80
2016,06,12,07,59,12.90
2016,06,12,08,00,12.90
2016,06,12,08,01,13.00
2016,06,12,08,02,13.10
2016,06,12,08,03,13.20
2016,06,12,08,04,13.30
2016,06,12,08,05,13.30
2016,06,12,08,06,13.30
2016,06,12,08,07,13.40
2016,06,12,08,08,13.40
2016,06,12,08,09,13.40
2016,06,12,08,10,13.40
2016,06,12,08,11,13.40
2016,06,12,08,12,13.40
2016,06,12,08,13,13.40
2016,06,12,08,14,13.40
2016,06,12,08,15,13.40
2016,06,12,08,16,13.40
2016,06,12,08,17,13.40
2016,06,12,08,18,13.40
2016,06,12,08,19,13.50
2016,06,12,08,20,13.50
2016,06,12,08,21,13.50
2016,06,12,08,22,13.50
2016,06,12,08,23,13.60
2016,06,12,08,24,13.60
2016,06,12,08,25,13.60
2016,06,12,08,26,13.60
2016,06,12,08,27,13.60
2016,06,12,08,28,13.60
2016,06,12,08,29,13.70
2016,06,12,08,30,13.70
2016,06,12,08,31,13.70
2016,06,12,08,32,13.70
2016,06,12,08,33,13.70
2016,06,12,08,34,13.70
2016,06,12,08,35,13.70
2016,06,12,08,36,13.70
2016,06,12,08,37,13.70
2016,06,12,08,38,13.70
2016,06,12,08,39,13.70
2016,06,12,08,40,13.70
2016,06,12,08,41,13.70
2016,06,12,08,42,13.70
2016,06,12,08,43,13.70
2016,06,12,08,44,13.70
2016,06,12,08,45,13.70
2016,06,12,08,46,13.60
2016,06,12,08,47,13.60
2016,06,12,08,48,13.60
2016,06,12,08,49,13.60
2016,06,12,08,50,13.70
2016,06,12,08,51,13.70
2016,06,12,08,52,13.70
2016,06,12,08,53,13.70
2016,06,12,08,54,13.80
2016,06,12,08,55,13.80
2016,06,12,08,56,13.90
2016,06,12,08,57,13.90
2016,06,12,08,58,14.00
2016,06,12,08,59,14.10
2016,06,12,09,00,14.10
2016,06,12,09,01,14.10
2016,06,12,09,02,14.10
2016,06,12,09,03,14.10
2016,06,12,09,04,14.10
2016,06,12,09,05,14.10
2016,06,12,09,06,14.10
2016,06,12,09,07,14.10
2016,06,12,09,08,14.10
2016,06,12,09,09,14.10
2016,06,12,09,10,14.10
2016,06,12,09,11,14.10
2016,06,12,09,12,14.10
2016,06,12,09,13,14.10
2016,06,12,09,14,14.10
2016,06,12,09,15,14.20
2016,06,12,09,16,14.20
2016,06,12,09,17,14.30
2016,06,12,09,18,14.30
2016,06,12,09,19,14.30
2016,06,12,09,20,14.40
2016,06,12,09,21,14.50
2016,06,12,09,22,14.50
2016,06,12,09,23,14.60
2016,06,12,09,24,14.70
2016,06,12,09,25,14.80
2016,06,12,09,26,14.90
2016,06,12,09,27,15.00
2016,06,12,09,28,15.00
2016,06,12,09,29,15.00
2016,06,12,09,30,15.00
2016,06,12,09,31,15.00
2016,06,12,09,32,15.00
2016,06,12,09,33,15.00
2016,06,12,09,34,15.00
2016,06,12,09,35,15.00
2016,06,12,09,36,15.00
2016,06,12,09,37,15.00
2016,06,12,09,38,15.00
2016,06,12,09,39,15.00
2016,06,12,09,40,15.00
2016,06,12,09,41,14.90
2016,06,12,09,42,14.80
2016,06,12,09,43,14.70
2016,06,12,09,44,14.70
2016,06,12,09,45,14.70
2016,06,12,09,46,14.70
2016,06,12,09,47,14.70
2016,06,12,09,48,14.70
2016,06,12,09,49,14.70
2016,06,12,09,50,14.70
2016,06,12,09,51,14.70
2016,06,12,09,52,14.80
2016,06,12,09,53,14.90
2016,06,12,09,54,15.00
2016,06,12,09,55,15.00
2016,06,12,09,56,15.00
2016,06,12,09,57,15.00
2016,06,12,09,58,15.00
2016,06,12,09,59,15.00
2016,06,12,10,00,15.00
2016,06,12,10,01,15.00
2016,06,12,10,02,15.00
2016,06,12,10,03,15.00
2016,06,12,10,04,15.00
2016,06,12,10,05,15.00
2016,06,12,10,06,15.00
2016,06,12,10,07,14.90
2016,06,12,10,08,15.00
2016,06,12,10,09,15.00
2016,06,12,10,10,15.00
2016,06,12,10,11,14.90
2016,06,12,10,12,14.80
2016,06,12,10,13,14.80
2016,06,12,10,14,14.80
2016,06,12,10,15,14.70
2016,06,12,10,16,14.70
2016,06,12,10,17,14.70
2016,06,12,10,18,14.80
2016,06,12,10,19,15.00
2016,06,12,10,20,15.00
2016,06,12,10,21,15.10
2016,06,12,10,22,15.20
2016,06,12,10,23,15.30
2016,06,12,10,24,15.40
2016,06,12,10,25,15.40
2016,06,12,10,26,15.50
2016,06,12,10,27,15.60
2016,06,12,10,28,15.60
2016,06,12,10,29,15.70
2016,06,12,10,30,15.80
2016,06,12,10,31,15.80
2016,06,12,10,32,15.90
2016,06,12,10,33,15.90
2016,06,12,10,34,15.90
2016,06,12,10,35,15.80
2016,06,12,10,36,15.70
2016,06,12,10,37,15.70
2016,06,12,10,38,15.60
2016,06,12,10,39,15.60
2016,06,12,10,40,15.60
2016,06,12,10,41,15.50
2016,06,12,10,42,15.40
2016,06,12,10,43,15.30
2016,06,12,10,44,15.30
2016,06,12,10,45,15.30
2016,06,12,10,46,15.30
2016,06,12,10,47,15.30
2016,06,12,10,48,15.30
2016,06,12,10,49,15.30
2016,06,12,10,50,15.40
2016,06,12,10,51,15.40
2016,06,12,10,52,15.50
2016,06,12,10,53,15.50
2016,06,12,10,54,15.50
2016,06,12,10,55,15.60
2016,06,12,10,56,15.60
2016,06,12,10,57,15.60
2016,06,12,10,58,15.60
2016,06,12,10,59,15.70
2016,06,12,11,00,15.60
2016,06,12,11,01,15.70
2016,06,12,11,02,15.70
2016,06,12,11,03,15.80
2016,06,12,11,04,15.80
2016,06,12,11,05,15.90
2016,06,12,11,06,15.80
2016,06,12,11,07,15.80
2016,06,12,11,08,15.90
2016,06,12,11,09,15.90
2016,06,12,11,10,16.00
2016,06,12,11,11,16.10
2016,06,12,11,12,16.10
2016,06,12,11,13,16.20
2016,06,12,11,14,16.20
2016,06,12,11,15,16.20
2016,06,12,11,16,16.20
2016,06,12,11,17,16.20
2016,06,12,11,18,16.20
2016,06,12,11,19,16.20
2016,06,12,11,20,16.20
2016,06,12,11,21,16.20
2016,06,12,11,22,16.20
2016,06,12,11,23,16.10
2016,06,12,11,24,16.00
2016,06,12,11,25,16.00
2016,06,12,11,26,15.90
2016,06,12,11,27,15.80
2016,06,12,11,28,15.80
2016,06,12,11,29,15.80
2016,06,12,11,30,15.80
2016,06,12,11,31,15.80
2016,06,12,11,32,15.80
2016,06,12,11,33,15.90
2016,06,12,11,34,16.00
2016,06,12,11,35,16.00
2016,06,12,11,36,16.00
2016,06,12,11,37,16.00
2016,06,12,11,38,15.90
2016,06,12,11,39,15.80
2016,06,12,11,40,15.70
2016,06,12,11,41,15.70
2016,06,12,11,42,15.80
2016,06,12,11,43,15.90
2016,06,12,11,44,16.00
2016,06,12,11,45,16.10
2016,06,12,11,46,16.10
2016,06,12,11,47,16.20
2016,06,12,11,48,16.30
2016,06,12,11,49,16.30
2016,06,12,11,50,16.20
2016,06,12,11,51,16.30
2016,06,12,11,52,16.40
2016,06,12,11,53,16.40
2016,06,12,11,54,16.50
2016,06,12,11,55,16.60
2016,06,12,11,56,16.60
2016,06,12,11,57,16.60
2016,06,12,11,58,16.60
2016,06,12,11,59,16.50
2016,06,12,12,00,16.50
2016,06,12,12,01,16.50
2016,06,12,12,02,16.40
2016,06,12,12,03,16.30
2016,06,12,12,04,16.30
2016,06,12,12,05,16.30
2016,06,12,12,06,16.30
2016,06,12,12,07,16.30
2016,06,12,12,08,16.20
2016,06,12,12,09,16.10
2016,06,12,12,10,16.00
2016,06,12,12,11,16.10
2016,06,12,12,12,16.10
2016,06,12,12,13,16.00
2016,06,12,12,14,16.00
2016,06,12,12,15,16.00
2016,06,12,12,16,16.10
2016,06,12,12,17,16.20
2016,06,12,12,18,16.20
2016,06,12,12,19,16.20
2016,06,12,12,20,16.20
2016,06,12,12,21,16.20
2016,06,12,12,22,16.20
2016,06,12,12,23,16.10
2016,06,12,12,24,16.10
2016,06,12,12,25,16.10
2016,06,12,12,26,16.00
2016,06,12,12,27,16.00
2016,06,12,12,28,16.00
2016,06,12,12,29,16.10
2016,06,12,12,30,16.20
2016,06,12,12,31,16.30
2016,06,12,12,32,16.40
2016,06,12,12,33,16.40
2016,06,12,12,34,16.50
2016,06,12,12,35,16.50
2016,06,12,12,36,16.60
2016,06,12,12,37,16.50
2016,06,12,12,38,16.50
2016,06,12,12,39,16.60
2016,06,12,12,40,16.60
2016,06,12,12,41,16.60
2016,06,12,12,42,16.50
2016,06,12,12,43,16.40
2016,06,12,12,44,16.40
2016,06,12,12,45,16.30
2016,06,12,12,46,16.20
2016,06,12,12,47,16.20
2016,06,12,12,48,16.20
2016,06,12,12,49,16.20
2016,06,12,12,50,16.20
2016,06,12,12,51,16.30
2016,06,12,12,52,16.30
2016,06,12,12,53,16.40
2016,06,12,12,54,16.50
2016,06,12,12,55,16.60
2016,06,12,12,56,16.70
2016,06,12,12,57,16.70
2016,06,12,12,58,16.80
2016,06,12,12,59,16.80
2016,06,12,13,00,16.80
2016,06,12,13,01,16.80
2016,06,12,13,02,16.70
2016,06,12,13,03,16.70
2016,06,12,13,04,16.60
2016,06,12,13,05,16.60
2016,06,12,13,06,16.60
2016,06,12,13,07,16.60
2016,06,12,13,08,16.60
2016,06,12,13,09,16.60
2016,06,12,13,10,16.60
2016,06,12,13,11,16.60
2016,06,12,13,12,16.70
2016,06,12,13,13,16.70
2016,06,12,13,14,16.80
2016,06,12,13,15,16.80
2016,06,12,13,16,16.80
2016,06,12,13,17,16.80
2016,06,12,13,18,16.80
2016,06,12,13,19,16.80
2016,06,12,13,20,16.80
2016,06,12,13,21,16.70
2016,06,12,13,22,16.70
2016,06,12,13,23,16.70
2016,06,12,13,24,16.70
2016,06,12,13,25,16.70
2016,06,12,13,26,16.70
2016,06,12,13,27,16.70
2016,06,12,13,28,16.70
2016,06,12,13,29,16.80
2016,06,12,13,30,16.80
2016,06,12,13,31,16.80
2016,06,12,13,32,16.80
2016,06,12,13,33,16.80
2016,06,12,13,34,16.80
2016,06,12,13,35,16.80
2016,06,12,13,36,16.80
2016,06,12,13,37,16.70
2016,06,12,13,38,16.70
2016,06,12,13,39,16.60
2016,06,12,13,40,16.60
2016,06,12,13,41,16.70
2016,06,12,13,42,16.70
2016,06,12,13,43,16.70
2016,06,12,13,44,16.70
2016,06,12,13,45,16.70
2016,06,12,13,46,16.70
2016,06,12,13,47,16.70
2016,06,12,13,48,16.70
2016,06,12,13,49,16.70
2016,06,12,13,50,16.60
2016,06,12,13,51,16.70
2016,06,12,13,52,16.70
2016,06,12,13,53,16.70
2016,06,12,13,54,16.70
2016,06,12,13,55,16.70
2016,06,12,13,56,16.70
2016,06,12,13,57,16.70
2016,06,12,13,58,16.70
2016,06,12,13,59,16.70
2016,06,12,14,00,16.70
2016,06,12,14,01,16.70
2016,06,12,14,02,16.70
2016,06,12,14,03,16.70
2016,06,12,14,04,16.80
2016,06,12,14,05,16.80
2016,06,12,14,06,16.90
2016,06,12,14,07,17.00
2016,06,12,14,08,17.10
2016,06,12,14,09,17.10
2016,06,12,14,10,17.10
2016,06,12,14,11,17.10
2016,06,12,14,12,17.10
2016,06,12,14,13,17.10
2016,06,12,14,14,17.10
2016,06,12,14,15,17.10
2016,06,12,14,16,17.00
2016,06,12,14,17,17.00
2016,06,12,14,18,16.90
2016,06,12,14,19,16.90
2016,06,12,14,20,16.80
2016,06,12,14,21,16.70
2016,06,12,14,22,16.70
2016,06,12,14,23,16.70
2016,06,12,14,24,16.70
2016,06,12,14,25,16.70
2016,06,12,14,26,16.60
2016,06,12,14,27,16.60
2016,06,12,14,28,16.70
2016,06,12,14,29,16.70
2016,06,12,14,30,16.70
2016,06,12,14,31,16.70
2016,06,12,14,32,16.80
2016,06,12,14,33,16.80
2016,06,12,14,34,16.80
2016,06,12,14,35,16.80
2016,06,12,14,36,16.80
2016,06,12,14,37,16.80
2016,06,12,14,38,16.70
2016,06,12,14,39,16.60
2016,06,12,14,40,16.60
2016,06,12,14,41,16.60
2016,06,12,14,42,16.60
2016,06,12,14,43,16.60
2016,06,12,14,44,16.70
2016,06,12,14,45,16.70
2016,06,12,14,46,16.70
2016,06,12,14,47,16.70
2016,06,12,14,48,16.70
2016,06,12,14,49,16.60
2016,06,12,14,50,16.60
2016,06,12,14,51,16.60
2016,06,12,14,52,16.60
2016,06,12,14,53,16.60
2016,06,12,14,54,16.60
2016,06,12,14,55,16.60
2016,06,12,14,56,16.60
2016,06,12,14,57,16.60
2016,06,12,14,58,16.50
2016,06,12,14,59,16.50
2016,06,12,15,00,16.50
2016,06,12,15,01,16.50
2016,06,12,15,02,16.50
2016,06,12,15,03,16.50
2016,06,12,15,04,16.50
2016,06,12,15,05,16.50
2016,06,12,15,06,16.50
2016,06,12,15,07,16.60
2016,06,12,15,08,16.60
2016,06,12,15,09,16.70
2016,06,12,15,10,16.70
2016,06,12,15,11,16.80
2016,06,12,15,12,16.80
2016,06,12,15,13,16.70
2016,06,12,15,14,16.60
2016,06,12,15,15,16.60
2016,06,12,15,16,16.50
2016,06,12,15,17,16.50
2016,06,12,15,18,16.60
2016,06,12,15,19,16.60
2016,06,12,15,20,16.60
2016,06,12,15,21,16.60
2016,06,12,15,22,16.60
2016,06,12,15,23,16.60
2016,06,12,15,24,16.70
2016,06,12,15,25,16.60
2016,06,12,15,26,16.60
2016,06,12,15,27,16.50
2016,06,12,15,28,16.50
2016,06,12,15,29,16.40
2016,06,12,15,30,16.50
2016,06,12,15,31,16.40
2016,06,12,15,32,16.50
2016,06,12,15,33,16.50
2016,06,12,15,34,16.50
2016,06,12,15,35,16.50
2016,06,12,15,36,16.50
2016,06,12,15,37,16.50
2016,06,12,15,38,16.50
2016,06,12,15,39,16.50
2016,06,12,15,40,16.50
2016,06,12,15,41,16.50
2016,06,12,15,42,16.50
2016,06,12,15,43,16.50
2016,06,12,15,44,16.50
2016,06,12,15,45,16.50
2016,06,12,15,46,16.40
2016,06,12,15,47,16.40
2016,06,12,15,48,16.40
2016,06,12,15,49,16.40
2016,06,12,15,50,16.40
2016,06,12,15,51,16.30
2016,06,12,15,52,16.30
2016,06,12,15,53,16.30
2016,06,12,15,54,16.30
2016,06,12,15,55,16.40
2016,06,12,15,56,16.40
2016,06,12,15,57,16.50
2016,06,12,15,58,16.50
2016,06,12,15,59,16.50
2016,06,12,16,00,16.50
2016,06,12,16,01,16.50
2016,06,12,16,02,16.40
2016,06,12,16,03,16.40
2016,06,12,16,04,16.40
2016,06,12,16,05,16.50
2016,06,12,16,06,16.50
2016,06,12,16,07,16.50
2016,06,12,16,08,16.50
2016,06,12,16,09,16.40
2016,06,12,16,10,16.40
2016,06,12,16,11,16.40
2016,06,12,16,12,16.40
2016,06,12,16,13,16.40
2016,06,12,16,14,16.40
2016,06,12,16,15,16.40
2016,06,12,16,16,16.30
2016,06,12,16,17,16.30
2016,06,12,16,18,16.30
2016,06,12,16,19,16.20
2016,06,12,16,20,16.20
2016,06,12,16,21,16.20
2016,06,12,16,22,16.10
2016,06,12,16,23,16.10
2016,06,12,16,24,16.10
2016,06,12,16,25,16.10
2016,06,12,16,26,16.00
2016,06,12,16,27,16.00
2016,06,12,16,28,15.90
2016,06,12,16,29,15.90
2016,06,12,16,30,15.80
2016,06,12,16,31,15.80
2016,06,12,16,32,15.80
2016,06,12,16,33,15.80
2016,06,12,16,34,15.80
2016,06,12,16,35,15.80
2016,06,12,16,36,15.80
2016,06,12,16,37,15.80
2016,06,12,16,38,15.80
2016,06,12,16,39,15.80
2016,06,12,16,40,15.80
2016,06,12,16,41,15.80
2016,06,12,16,42,15.80
2016,06,12,16,43,15.80
2016,06,12,16,44,15.80
2016,06,12,16,45,15.80
2016,06,12,16,46,15.80
2016,06,12,16,47,15.80
2016,06,12,16,48,15.80
2016,06,12,16,49,15.80
2016,06,12,16,50,15.80
2016,06,12,16,51,15.80
2016,06,12,16,52,15.80
2016,06,12,16,53,15.80
2016,06,12,16,54,15.70
2016,06,12,16,55,15.70
2016,06,12,16,56,15.70
2016,06,12,16,57,15.80
2016,06,12,16,58,15.80
2016,06,12,16,59,15.80
2016,06,12,17,00,15.80
2016,06,12,17,01,15.80
2016,06,12,17,02,15.80
2016,06,12,17,03,15.80
2016,06,12,17,04,15.70
2016,06,12,17,05,15.70
2016,06,12,17,06,15.80
2016,06,12,17,07,15.80
2016,06,12,17,08,15.80
2016,06,12,17,09,15.80
2016,06,12,17,10,15.80
2016,06,12,17,11,15.80
2016,06,12,17,12,15.70
2016,06,12,17,13,15.70
2016,06,12,17,14,15.70
2016,06,12,17,15,15.70
2016,06,12,17,16,15.70
2016,06,12,17,17,15.70
2016,06,12,17,18,15.70
2016,06,12,17,19,15.70